Back to catalog

STARLINK-36760

AliveCommunicationsVLEO
NORAD 68956·PAYLOAD·🇺🇸 United States

Launched May 1, 2026 from Cape Canaveral Space Force Station

Loading…

Next Passes (next 24 hours)

TLE

FreshSource: CelesTrak SupGP

Epoch: Sep 14, 2026, 14:30 UTC

1 68956C 26099F   26257.60465278  .00012253  00000+0  36189-3 0  2579
2 68956  53.1574 103.4985 0001260  93.5697  34.7099 15.34395028    12

Track STARLINK-36760 in real time with AllMySat

Download on the App Store